• en France
  • Liste des pays
  • À 7 jours
  • Température de l'eau
  • Carte satellitaire
  • Carte météo
  • Widgets météo
  • user-avatar
    Se connecter

    Météo par heure à Galata

    Ce jour, 24 Novembre, Vendredi

    Heure Température Précipitation Vent Pression Humidité
    00:00 +8°C° 0 mm 1 m/s 760 mmHg 89%
    01:00 +7°C° 0 mm 0 m/s 760 mmHg 89%
    02:00 +7°C° 0 mm 0 m/s 760 mmHg 89%
    03:00 +7°C° 0 mm 0 m/s 760 mmHg 89%
    04:00 +7°C° 0 mm 0 m/s 760 mmHg 89%
    05:00 +7°C° 0 mm 0 m/s 759 mmHg 89%
    06:00 +7°C° 0 mm 0 m/s 759 mmHg 89%
    07:00 +7°C° 0 mm 0 m/s 759 mmHg 88%
    08:00 +7°C° 0 mm 0 m/s 759 mmHg 88%
    09:00 +8°C° 0 mm 0 m/s 760 mmHg 82%
    10:00 +11°C° 0 mm 1 m/s 760 mmHg 75%
    11:00 +12°C° 0 mm 1 m/s 760 mmHg 69%
    12:00 +13°C° 0 mm 1 m/s 760 mmHg 67%
    13:00 +13°C° 0 mm 1 m/s 760 mmHg 64%
    14:00 +14°C° 0 mm 1 m/s 760 mmHg 62%
    15:00 +13°C° 0 mm 1 m/s 760 mmHg 67%
    16:00 +12°C° 0 mm 2 m/s 760 mmHg 72%
    17:00 +10°C° 0 mm 2 m/s 760 mmHg 76%
    18:00 +10°C° 0 mm 2 m/s 760 mmHg 80%
    19:00 +10°C° 0 mm 2 m/s 760 mmHg 83%
    20:00 +9°C° 0 mm 2 m/s 760 mmHg 86%
    21:00 +9°C° 0 mm 2 m/s 761 mmHg 87%
    22:00 +9°C° 0 mm 2 m/s 761 mmHg 88%
    23:00 +9°C° 0 mm 3 m/s 761 mmHg 89%

    Demain, 25 Novembre, Samedi

    Heure Température Précipitation Vent Pression Humidité
    00:00 +9°C° 0 mm 3 m/s 761 mmHg 89%
    01:00 +9°C° 0 mm 3 m/s 761 mmHg 90%
    02:00 +9°C° 0 mm 3 m/s 761 mmHg 90%
    03:00 +9°C° 0,1 mm 3 m/s 761 mmHg 91%
    04:00 +8°C° 0,1 mm 4 m/s 761 mmHg 91%
    05:00 +8°C° 0,1 mm 4 m/s 761 mmHg 92%
    06:00 +8°C° 0,1 mm 4 m/s 761 mmHg 92%
    07:00 +8°C° 0,1 mm 4 m/s 761 mmHg 92%
    08:00 +8°C° 0,1 mm 5 m/s 761 mmHg 92%
    09:00 +9°C° 0,1 mm 5 m/s 761 mmHg 88%
    10:00 +10°C° 0,1 mm 5 m/s 761 mmHg 85%
    11:00 +11°C° 0,1 mm 6 m/s 761 mmHg 81%
    12:00 +11°C° 0 mm 6 m/s 760 mmHg 78%
    13:00 +11°C° 0 mm 6 m/s 760 mmHg 76%
    14:00 +13°C° 0 mm 5 m/s 760 mmHg 74%
    15:00 +12°C° 0 mm 5 m/s 759 mmHg 77%
    16:00 +10°C° 0 mm 5 m/s 759 mmHg 80%
    17:00 +10°C° 0 mm 4 m/s 759 mmHg 83%
    18:00 +10°C° 0 mm 4 m/s 759 mmHg 84%
    19:00 +10°C° 0 mm 4 m/s 759 mmHg 86%
    20:00 +8°C° 0 mm 4 m/s 759 mmHg 88%
    21:00 +9°C° 0 mm 3 m/s 758 mmHg 88%
    22:00 +9°C° 0 mm 3 m/s 758 mmHg 89%
    23:00 +9°C° 0 mm 3 m/s 758 mmHg 90%

    Après-demain, 26 Novembre, Dimanche

    Heure Température Précipitation Vent Pression Humidité
    00:00 +9°C° 0 mm 3 m/s 758 mmHg 91%
    01:00 +9°C° 0 mm 3 m/s 758 mmHg 91%
    02:00 +9°C° 0 mm 3 m/s 757 mmHg 92%
    03:00 +9°C° 0 mm 3 m/s 757 mmHg 92%
    04:00 +9°C° 0 mm 3 m/s 757 mmHg 92%
    05:00 +9°C° 0 mm 3 m/s 756 mmHg 92%
    06:00 +9°C° 0 mm 3 m/s 756 mmHg 92%
    07:00 +9°C° 0 mm 3 m/s 756 mmHg 92%
    08:00 +9°C° 0 mm 3 m/s 756 mmHg 92%
    09:00 +10°C° 0 mm 3 m/s 756 mmHg 86%
    10:00 +11°C° 0 mm 3 m/s 756 mmHg 79%
    11:00 +12°C° 0 mm 4 m/s 756 mmHg 73%
    12:00 +13°C° 0 mm 4 m/s 756 mmHg 70%
    13:00 +13°C° 0 mm 4 m/s 755 mmHg 68%
    14:00 +14°C° 0 mm 4 m/s 755 mmHg 66%
    15:00 +13°C° 0 mm 4 m/s 754 mmHg 71%
    16:00 +12°C° 0 mm 3 m/s 754 mmHg 75%
    17:00 +11°C° 0 mm 3 m/s 754 mmHg 80%
    18:00 +11°C° 0 mm 3 m/s 754 mmHg 82%
    19:00 +11°C° 0 mm 3 m/s 754 mmHg 84%
    20:00 +10°C° 0 mm 3 m/s 754 mmHg 87%
    21:00 +10°C° 0 mm 3 m/s 754 mmHg 88%
    22:00 +10°C° 0 mm 3 m/s 753 mmHg 89%
    23:00 +10°C° 0 mm 4 m/s 753 mmHg 90%

    27 Novembre, Lundi

    Heure Température Précipitation Vent Pression Humidité
    00:00 +10°C° 0 mm 4 m/s 753 mmHg 91%
    01:00 +10°C° 0 mm 3 m/s 753 mmHg 92%
    02:00 +10°C° 0 mm 3 m/s 753 mmHg 93%
    03:00 +10°C° 0 mm 3 m/s 753 mmHg 93%
    04:00 +10°C° 0 mm 3 m/s 752 mmHg 94%
    05:00 +10°C° 0 mm 3 m/s 752 mmHg 94%
    06:00 +10°C° 0,1 mm 3 m/s 752 mmHg 94%
    07:00 +10°C° 0,1 mm 3 m/s 752 mmHg 95%
    08:00 +10°C° 0,1 mm 2 m/s 752 mmHg 95%
    09:00 +12°C° 0,1 mm 2 m/s 752 mmHg 91%
    10:00 +13°C° 0,1 mm 2 m/s 752 mmHg 86%
    11:00 +14°C° 0,1 mm 2 m/s 752 mmHg 82%
    12:00 +14°C° 0,1 mm 2 m/s 752 mmHg 81%
    13:00 +14°C° 0,1 mm 2 m/s 751 mmHg 80%
    14:00 +15°C° 0,1 mm 2 m/s 751 mmHg 78%
    15:00 +13°C° 0,3 mm 3 m/s 751 mmHg 82%
    16:00 +12°C° 0,3 mm 3 m/s 751 mmHg 86%
    17:00 +12°C° 0,3 mm 4 m/s 751 mmHg 89%
    18:00 +12°C° 0,7 mm 4 m/s 751 mmHg 90%
    19:00 +12°C° 0,7 mm 5 m/s 751 mmHg 90%
    20:00 +12°C° 0,7 mm 5 m/s 751 mmHg 91%
    21:00 +12°C° 0,9 mm 5 m/s 750 mmHg 91%
    22:00 +12°C° 0,9 mm 5 m/s 750 mmHg 91%
    23:00 +10°C° 0,9 mm 5 m/s 750 mmHg 90%

    28 Novembre, Mardi

    Heure Température Précipitation Vent Pression Humidité
    00:00 +10°C° 1,3 mm 6 m/s 750 mmHg 91%
    01:00 +10°C° 1,3 mm 6 m/s 750 mmHg 92%
    02:00 +10°C° 1,3 mm 6 m/s 749 mmHg 93%
    03:00 +10°C° 1,6 mm 6 m/s 749 mmHg 93%
    04:00 +10°C° 1,6 mm 6 m/s 749 mmHg 93%
    05:00 +10°C° 1,6 mm 6 m/s 749 mmHg 93%
    06:00 +9°C° 1,3 mm 6 m/s 750 mmHg 92%
    07:00 +9°C° 1,3 mm 6 m/s 750 mmHg 92%
    08:00 +9°C° 1,3 mm 6 m/s 750 mmHg 92%
    09:00 +9°C° 2,1 mm 6 m/s 750 mmHg 92%
    10:00 +8°C° 2,1 mm 5 m/s 750 mmHg 92%
    11:00 +8°C° 2,1 mm 5 m/s 751 mmHg 91%
    12:00 +8°C° 1,9 mm 6 m/s 750 mmHg 91%
    13:00 +8°C° 1,9 mm 6 m/s 750 mmHg 91%
    14:00 +8°C° 1,9 mm 7 m/s 750 mmHg 90%
    15:00 +8°C° 1,4 mm 7 m/s 751 mmHg 90%
    16:00 +8°C° 1,4 mm 7 m/s 751 mmHg 89%
    17:00 +6°C° 1,4 mm 7 m/s 751 mmHg 88%
    18:00 +6°C° 1,2 mm 8 m/s 752 mmHg 87%
    19:00 +6°C° 1,2 mm 9 m/s 752 mmHg 86%
    20:00 +6°C° 1,2 mm 10 m/s 752 mmHg 86%
    21:00 +5°C° 0,8 mm 10 m/s 753 mmHg 85%
    22:00 +5°C° 0,8 mm 10 m/s 753 mmHg 85%
    23:00 +5°C° 0,8 mm 10 m/s 753 mmHg 84%

    29 Novembre, Mercredi

    Heure Température Précipitation Vent Pression Humidité
    00:00 +3°C° 0,4 mm 9 m/s 753 mmHg 84%
    01:00 +3°C° 0,4 mm 9 m/s 754 mmHg 83%
    02:00 +2°C° 0,4 mm 9 m/s 754 mmHg 83%
    03:00 +2°C° 0,1 mm 9 m/s 754 mmHg 83%
    04:00 +1°C° 0,1 mm 9 m/s 754 mmHg 84%
    05:00 +1°C° 0,1 mm 8 m/s 754 mmHg 84%
    06:00 +1°C° 0 mm 8 m/s 755 mmHg 84%
    07:00 0°C° 0 mm 7 m/s 755 mmHg 85%
    08:00 0°C° 0 mm 7 m/s 756 mmHg 85%
    09:00 +2°C° 0 mm 7 m/s 756 mmHg 81%
    10:00 +3°C° 0 mm 6 m/s 756 mmHg 77%
    11:00 +3°C° 0 mm 6 m/s 757 mmHg 72%
    12:00 +4°C° 0 mm 6 m/s 757 mmHg 70%
    13:00 +6°C° 0 mm 5 m/s 757 mmHg 68%
    14:00 +6°C° 0 mm 5 m/s 757 mmHg 66%
    15:00 +5°C° 0 mm 4 m/s 757 mmHg 69%
    16:00 +5°C° 0 mm 4 m/s 757 mmHg 73%
    17:00 +4°C° 0 mm 3 m/s 757 mmHg 76%
    18:00 +4°C° 0 mm 3 m/s 758 mmHg 78%
    19:00 +5°C° 0 mm 2 m/s 758 mmHg 80%
    20:00 +5°C° 0 mm 1 m/s 758 mmHg 81%
    21:00 +5°C° 0 mm 1 m/s 758 mmHg 82%
    22:00 +5°C° 0 mm 1 m/s 758 mmHg 83%
    23:00 +5°C° 0 mm 1 m/s 758 mmHg 83%
    Voir plus